TimeEDT,TemperatureF,Dew PointF,Humidity,Sea Level PressureIn,VisibilityMPH,Wind Direction,Wind SpeedMPH,Gust SpeedMPH,PrecipitationIn,Events,Conditions,WindDirDegrees,DateUTC
12:11 AM,42.8,39.2,87,29.78,6.0,Calm,Calm,-,0.01,Rain,Light Rain,0,2013-04-01 04:11:00
12:51 AM,41.0,39.0,93,29.76,4.0,East,4.6,-,0.08,Rain,Rain,80,2013-04-01 04:51:00
1:51 AM,39.9,39.0,97,29.71,5.0,NE,9.2,-,0.11,Rain,Rain,40,2013-04-01 05:51:00
2:17 AM,39.2,39.2,100,29.68,6.0,NE,9.2,-,0.05,Rain,Rain,40,2013-04-01 06:17:00
2:51 AM,39.9,39.0,97,29.66,7.0,NE,8.1,-,0.09,Rain,Light Rain,50,2013-04-01 06:51:00
3:39 AM,39.2,39.2,100,29.61,6.0,NNE,8.1,-,0.03,Rain,Light Rain,30,2013-04-01 07:39:00
3:51 AM,39.9,39.0,97,29.62,6.0,North,5.8,-,0.03,Rain,Light Rain,10,2013-04-01 07:51:00
4:20 AM,39.2,39.2,100,29.60,4.0,NNW,6.9,-,0.01,Rain,Light Rain,330,2013-04-01 08:20:00
4:27 AM,39.2,39.2,100,29.60,3.0,NW,5.8,-,0.01,Rain,Light Rain,320,2013-04-01 08:27:00
4:39 AM,39.2,39.2,100,29.59,2.5,North,5.8,-,0.02,Rain,Light Rain,350,2013-04-01 08:39:00
4:48 AM,39.2,39.2,100,29.59,3.0,NNW,5.8,-,0.02,Rain,Light Rain,340,2013-04-01 08:48:00
4:51 AM,39.9,39.0,97,29.60,4.0,NNW,5.8,-,0.02,Rain,Light Rain,330,2013-04-01 08:51:00
5:34 AM,39.2,39.2,100,29.59,5.0,NW,5.8,-,N/A,,Overcast,310,2013-04-01 09:34:00
5:51 AM,39.0,37.9,96,29.61,5.0,NW,9.2,-,N/A,,Overcast,310,2013-04-01 09:51:00
6:51 AM,37.9,37.0,97,29.63,7.0,WNW,8.1,-,0.00,Rain,Light Rain,290,2013-04-01 10:51:00
7:22 AM,37.4,37.4,100,29.63,8.0,NW,6.9,-,0.00,,Overcast,310,2013-04-01 11:22:00
7:51 AM,39.0,37.9,96,29.64,5.0,NW,3.5,-,0.00,,Overcast,320,2013-04-01 11:51:00
8:05 AM,39.2,37.4,93,29.62,10.0,NW,3.5,-,N/A,,Overcast,320,2013-04-01 12:05:00
8:33 AM,39.2,37.4,93,29.62,10.0,WNW,5.8,-,N/A,,Overcast,290,2013-04-01 12:33:00
8:51 AM,41.0,39.0,93,29.62,10.0,NW,6.9,-,N/A,,Overcast,320,2013-04-01 12:51:00
9:16 AM,42.8,39.2,87,29.60,10.0,WNW,4.6,-,N/A,,Overcast,290,2013-04-01 13:16:00
9:41 AM,42.8,39.2,87,29.60,10.0,Calm,Calm,-,N/A,,Mostly Cloudy,0,2013-04-01 13:41:00
9:51 AM,44.1,39.9,85,29.61,10.0,Calm,Calm,-,N/A,,Mostly Cloudy,0,2013-04-01 13:51:00
10:07 AM,46.4,39.2,76,29.60,10.0,Variable,5.8,-,N/A,,Mostly Cloudy,0,2013-04-01 14:07:00
10:51 AM,48.9,37.9,66,29.59,10.0,Variable,5.8,-,N/A,,Partly Cloudy,0,2013-04-01 14:51:00
11:51 AM,51.1,39.0,63,29.58,10.0,SSW,4.6,-,N/A,,Mostly Cloudy,210,2013-04-01 15:51:00
12:08 PM,51.8,39.2,62,29.56,10.0,SW,6.9,-,N/A,,Scattered Clouds,220,2013-04-01 16:08:00
12:51 PM,55.0,39.0,55,29.55,10.0,SW,6.9,-,N/A,,Mostly Cloudy,230,2013-04-01 16:51:00
1:51 PM,55.9,37.9,51,29.52,10.0,SSW,16.1,-,N/A,,Overcast,210,2013-04-01 17:51:00
2:51 PM,57.0,37.0,47,29.49,10.0,SW,12.7,21.9,N/A,,Mostly Cloudy,220,2013-04-01 18:51:00
3:08 PM,46.4,39.2,76,29.53,10.0,West,16.1,31.1,0.00,Rain,Light Rain,280,2013-04-01 19:08:00
3:51 PM,46.9,39.9,77,29.55,10.0,WSW,11.5,17.3,0.00,Rain,Light Rain,250,2013-04-01 19:51:00
4:51 PM,48.9,39.0,69,29.55,10.0,WNW,12.7,-,0.00,,Mostly Cloudy,300,2013-04-01 20:51:00
5:51 PM,45.0,30.0,56,29.61,10.0,WNW,15.0,25.3,N/A,,Overcast,300,2013-04-01 21:51:00
6:51 PM,41.0,19.0,41,29.65,10.0,West,20.7,35.7,N/A,,Overcast,280,2013-04-01 22:51:00
7:51 PM,39.0,12.9,34,29.68,10.0,West,19.6,28.8,N/A,,Clear,280,2013-04-01 23:51:00
8:51 PM,37.0,9.0,31,29.71,10.0,WNW,13.8,25.3,N/A,,Clear,290,2013-04-02 00:51:00
9:51 PM,35.1,9.0,34,29.74,10.0,WNW,18.4,28.8,N/A,,Clear,290,2013-04-02 01:51:00
10:51 PM,32.0,10.9,42,29.75,10.0,WNW,13.8,20.7,N/A,,Clear,290,2013-04-02 02:51:00
11:51 PM,32.0,10.0,40,29.76,10.0,WNW,13.8,25.3,N/A,,Clear,290,2013-04-02 03:51:00